• In United Kingdom
  • List of Countries
  • For 7 days
  • Water Temperature
  • Satellite Maps
  • Weather Map
  • Weather Widgets
  • user-avatar
    Login

    Hourly Weather Elbasan

    Today, 17 December, Sunday

    Time Temperature Precipitation Wind Pressure Humidity
    00:00 +10°C° 1.2 mm 1 mps 729 mmHg 94%
    01:00 +10°C° 0 mm 1 mps 729 mmHg 94%
    02:00 +10°C° 0.9 mm 1 mps 729 mmHg 93%
    03:00 +9°C° 0.9 mm 1 mps 729 mmHg 92%
    04:00 +9°C° 0.9 mm 1 mps 729 mmHg 91%
    05:00 +9°C° 0.7 mm 1 mps 729 mmHg 92%
    06:00 +9°C° 0.7 mm 1 mps 729 mmHg 92%
    07:00 +8°C° 0.7 mm 1 mps 730 mmHg 92%
    08:00 +9°C° 0.5 mm 1 mps 730 mmHg 90%
    09:00 +9°C° 0.5 mm 1 mps 730 mmHg 88%
    10:00 +8°C° 0.5 mm 2 mps 731 mmHg 86%
    11:00 +9°C° 0.4 mm 2 mps 731 mmHg 82%
    12:00 +9°C° 0.4 mm 2 mps 731 mmHg 78%
    13:00 +9°C° 0.4 mm 2 mps 731 mmHg 74%
    14:00 +9°C° 0.4 mm 2 mps 731 mmHg 78%
    15:00 +8°C° 0.4 mm 2 mps 731 mmHg 82%
    16:00 +7°C° 0.4 mm 2 mps 732 mmHg 85%
    17:00 +7°C° 0.3 mm 2 mps 732 mmHg 87%
    18:00 +6°C° 0.3 mm 2 mps 733 mmHg 89%
    19:00 +7°C° 0.3 mm 1 mps 733 mmHg 91%
    20:00 +5°C° 0.2 mm 2 mps 733 mmHg 90%
    21:00 +5°C° 0.2 mm 2 mps 734 mmHg 89%
    22:00 +5°C° 0.2 mm 2 mps 734 mmHg 88%
    23:00 +5°C° 0.2 mm 2 mps 735 mmHg 87%

    Tomorrow, 18 December, Monday

    Time Temperature Precipitation Wind Pressure Humidity
    00:00 +4°C° 0.2 mm 3 mps 735 mmHg 87%
    01:00 +4°C° 0.2 mm 3 mps 735 mmHg 86%
    02:00 +4°C° 0.6 mm 3 mps 735 mmHg 88%
    03:00 +4°C° 0.6 mm 3 mps 735 mmHg 89%
    04:00 +4°C° 0.6 mm 3 mps 735 mmHg 91%
    05:00 +3°C° 0.4 mm 3 mps 735 mmHg 91%
    06:00 +4°C° 0.4 mm 2 mps 735 mmHg 91%
    07:00 +4°C° 0.4 mm 2 mps 735 mmHg 91%
    08:00 +5°C° 0.2 mm 2 mps 735 mmHg 88%
    09:00 +5°C° 0.2 mm 2 mps 736 mmHg 85%
    10:00 +6°C° 0.2 mm 2 mps 736 mmHg 81%
    11:00 +6°C° 0.3 mm 2 mps 735 mmHg 81%
    12:00 +6°C° 0.3 mm 2 mps 735 mmHg 81%
    13:00 +6°C° 0.3 mm 2 mps 735 mmHg 81%
    14:00 +5°C° 0.5 mm 2 mps 735 mmHg 84%
    15:00 +5°C° 0.5 mm 2 mps 735 mmHg 87%
    16:00 +4°C° 0.5 mm 2 mps 735 mmHg 90%
    17:00 +4°C° 0.2 mm 2 mps 735 mmHg 90%
    18:00 +3°C° 0.2 mm 2 mps 735 mmHg 91%
    19:00 +3°C° 0.2 mm 2 mps 736 mmHg 92%
    20:00 +2°C° 0.1 mm 2 mps 736 mmHg 92%
    21:00 +3°C° 0.1 mm 1 mps 736 mmHg 92%
    22:00 +3°C° 0.1 mm 1 mps 737 mmHg 92%
    23:00 +2°C° 0 mm 1 mps 737 mmHg 91%

    Day after tomorrow, 19 December, Tuesday

    Time Temperature Precipitation Wind Pressure Humidity
    00:00 +2°C° 0 mm 1 mps 737 mmHg 91%
    01:00 +1°C° 0 mm 1 mps 738 mmHg 90%
    02:00 +1°C° 0.1 mm 1 mps 738 mmHg 90%
    03:00 +1°C° 0.1 mm 1 mps 738 mmHg 89%
    04:00 +1°C° 0.1 mm 1 mps 738 mmHg 89%
    05:00 +1°C° 0 mm 1 mps 739 mmHg 88%
    06:00 +1°C° 0 mm 1 mps 739 mmHg 87%
    07:00 +1°C° 0 mm 1 mps 740 mmHg 86%
    08:00 +2°C° 0 mm 1 mps 740 mmHg 81%
    09:00 +3°C° 0 mm 1 mps 740 mmHg 76%
    10:00 +4°C° 0 mm 1 mps 741 mmHg 71%
    11:00 +4°C° 0 mm 1 mps 741 mmHg 68%
    12:00 +5°C° 0 mm 1 mps 741 mmHg 66%
    13:00 +5°C° 0 mm 1 mps 741 mmHg 64%
    14:00 +4°C° 0 mm 1 mps 741 mmHg 67%
    15:00 +4°C° 0 mm 1 mps 741 mmHg 71%
    16:00 +3°C° 0 mm 1 mps 741 mmHg 75%
    17:00 +2°C° 0 mm 1 mps 742 mmHg 77%
    18:00 +2°C° 0 mm 1 mps 742 mmHg 78%
    19:00 +1°C° 0 mm 1 mps 742 mmHg 79%
    20:00 -1°C° 0 mm 2 mps 742 mmHg 79%
    21:00 -1°C° 0 mm 2 mps 743 mmHg 79%
    22:00 -2°C° 0 mm 2 mps 743 mmHg 79%
    23:00 -2°C° 0 mm 2 mps 743 mmHg 78%

    20 December, Wednesday

    Time Temperature Precipitation Wind Pressure Humidity
    00:00 -2°C° 0 mm 2 mps 743 mmHg 78%
    01:00 -2°C° 0 mm 2 mps 743 mmHg 78%
    02:00 -2°C° 0 mm 2 mps 742 mmHg 77%
    03:00 -2°C° 0 mm 2 mps 742 mmHg 77%
    04:00 -2°C° 0 mm 2 mps 742 mmHg 77%
    05:00 -2°C° 0 mm 2 mps 743 mmHg 76%
    06:00 -2°C° 0 mm 2 mps 743 mmHg 75%
    07:00 -2°C° 0 mm 2 mps 743 mmHg 75%
    08:00 -1°C° 0 mm 2 mps 743 mmHg 70%
    09:00 +2°C° 0 mm 2 mps 743 mmHg 66%
    10:00 +3°C° 0 mm 2 mps 743 mmHg 61%
    11:00 +5°C° 0 mm 1 mps 743 mmHg 59%
    12:00 +5°C° 0 mm 1 mps 743 mmHg 57%
    13:00 +6°C° 0 mm 1 mps 743 mmHg 55%
    14:00 +5°C° 0 mm 1 mps 743 mmHg 59%
    15:00 +4°C° 0 mm 1 mps 743 mmHg 64%
    16:00 +3°C° 0 mm 1 mps 743 mmHg 69%
    17:00 +2°C° 0 mm 2 mps 743 mmHg 71%
    18:00 +1°C° 0 mm 2 mps 744 mmHg 73%
    19:00 -1°C° 0 mm 2 mps 744 mmHg 75%
    20:00 -1°C° 0 mm 2 mps 744 mmHg 76%
    21:00 -1°C° 0 mm 2 mps 745 mmHg 76%
    22:00 -1°C° 0 mm 2 mps 745 mmHg 76%
    23:00 -1°C° 0 mm 2 mps 745 mmHg 76%

    21 December, Thursday

    Time Temperature Precipitation Wind Pressure Humidity
    00:00 -1°C° 0 mm 2 mps 745 mmHg 75%
    01:00 -2°C° 0 mm 2 mps 745 mmHg 75%
    02:00 -2°C° 0 mm 2 mps 745 mmHg 74%
    03:00 -2°C° 0 mm 2 mps 745 mmHg 73%
    04:00 -2°C° 0 mm 2 mps 745 mmHg 73%
    05:00 -2°C° 0 mm 2 mps 745 mmHg 71%
    06:00 0°C° 0 mm 1 mps 745 mmHg 70%
    07:00 0°C° 0 mm 1 mps 745 mmHg 69%
    08:00 +2°C° 0 mm 1 mps 745 mmHg 64%
    09:00 +3°C° 0 mm 1 mps 746 mmHg 58%
    10:00 +5°C° 0 mm 1 mps 746 mmHg 53%
    11:00 +5°C° 0 mm 1 mps 745 mmHg 51%
    12:00 +5°C° 0 mm 2 mps 745 mmHg 50%
    13:00 +5°C° 0 mm 2 mps 744 mmHg 48%
    14:00 +4°C° 0 mm 2 mps 744 mmHg 53%
    15:00 +3°C° 0 mm 2 mps 744 mmHg 58%
    16:00 +3°C° 0 mm 1 mps 744 mmHg 62%
    17:00 +3°C° 0 mm 1 mps 744 mmHg 62%
    18:00 +2°C° 0 mm 1 mps 744 mmHg 62%
    19:00 +2°C° 0 mm 1 mps 744 mmHg 62%
    20:00 +2°C° 0 mm 1 mps 744 mmHg 61%
    21:00 +2°C° 0 mm 1 mps 744 mmHg 59%
    22:00 +2°C° 0 mm 1 mps 744 mmHg 57%
    23:00 +2°C° 0 mm 1 mps 744 mmHg 56%

    22 December, Friday

    Time Temperature Precipitation Wind Pressure Humidity
    00:00 +2°C° 0 mm 1 mps 744 mmHg 55%
    01:00 +2°C° 0 mm 1 mps 744 mmHg 53%
    02:00 +2°C° 0 mm 1 mps 743 mmHg 53%
    03:00 +2°C° 0 mm 1 mps 743 mmHg 52%
    04:00 +3°C° 0 mm 1 mps 743 mmHg 52%
    05:00 +3°C° 0 mm 1 mps 743 mmHg 52%
    06:00 +3°C° 0 mm 1 mps 743 mmHg 53%
    07:00 +3°C° 0 mm 1 mps 743 mmHg 53%
    08:00 +5°C° 0 mm 1 mps 743 mmHg 53%
    09:00 +7°C° 0 mm 1 mps 742 mmHg 54%
    10:00 +8°C° 0 mm 1 mps 742 mmHg 54%
    11:00 +9°C° 0 mm 1 mps 742 mmHg 54%
    12:00 +10°C° 0 mm 1 mps 741 mmHg 54%
    13:00 +11°C° 0 mm 1 mps 740 mmHg 54%
    14:00 +10°C° 0 mm 1 mps 740 mmHg 58%
    15:00 +8°C° 0 mm 1 mps 740 mmHg 63%
    16:00 +7°C° 0 mm 1 mps 739 mmHg 67%
    17:00 +6°C° 0 mm 1 mps 739 mmHg 67%
    18:00 +6°C° 0 mm 1 mps 739 mmHg 67%
    19:00 +5°C° 0 mm 1 mps 739 mmHg 67%
    20:00 +5°C° 0 mm 1 mps 739 mmHg 66%
    21:00 +5°C° 0 mm 1 mps 739 mmHg 65%
    22:00 +5°C° 0 mm 1 mps 738 mmHg 64%
    23:00 +5°C° 0 mm 1 mps 738 mmHg 64%
    Show more